Zurück zum Katalog

ASTRA 3A

AktivKommunikationGEO
NORAD 27400·PAYLOAD·🇱🇺 Luxembourg

Gestartet Mar 29, 2002 von Guiana Space Centre

Loading…

TLE

AktuellSource: Space-Track

Epoche: Sep 14, 2026, 10:43 UTC

1 27400U 02015B   26257.44685793  .00000051  00000-0  00000-0 0  9995
2 27400  10.7243  47.0658 0001908 225.0700 314.1850  0.99083742 89456

Verfolge ASTRA 3A in Echtzeit mit AllMySat

Download on the App Store